User: anonymous
Location: Caltech
(34.1382°N, 118.1253°W)
Time: 13:15:50
(UTC-07:00)
Language:

Cosmos 1939 - Orbit

View from above orbital plane
View from above orbital plane
View from above satellite
View from above satellite

Ground track
Ground track

The orbit data is extracted from the following two-line orbital elements,

1 19045U 88032A   14252.97379286  .00156252  00000-0  79877-3 0  9414
2 19045 097.2073 323.3422 0003427 148.0034 212.1973 15.81277824453860
Epoch (UTC): 09 September 2014 23:22:15
Eccentricity: 0.0003427
inclination: 97.2073°
perigee height: 324 km
apogee height: 329 km
right ascension of ascending node: 323.3422°
argument of perigee: 148.0034°
revolutions per day: 15.81277824
mean anomaly at epoch: 212.1973°
orbit number at epoch: 45386

The dashed part of the orbit path shows where the satellite is in the earth's shadow,  

DLR